Theta_e
321 322 323 324 323 322 322 322 320 322 327 327 324 322 326 325 321 325 328 327 329 332 333 338 339 337 339 341 340 340 340 341 341 342 343 343 344 344 343 343 343 344 344 344 344 344 344 345 345 346 346 345 346 346 346 347 347 347 347 347 348 349 347
320 322 323 323 324 324 322 319 321 324 324 327 329 324 323 323 320 323 327 324 325 325 328 338 343 338 339 341 340 340 341 342 341 341 342 342 342 342 342 343 343 343 344 344 344 344 344 345 345 345 346 345 345 346 346 346 347 347 347 348 348 349 347
321 321 321 321 323 323 322 322 325 325 320 323 329 325 322 321 320 321 324 324 325 324 326 335 338 339 344 345 344 341 340 341 342 341 341 340 340 341 341 343 343 343 344 344 344 344 344 344 345 345 345 345 346 346 346 346 346 347 347 347 348 349 348
321 320 319 318 319 321 322 323 324 324 322 324 325 324 321 320 320 320 322 323 324 327 332 335 335 342 349 349 348 345 341 341 341 341 341 339 339 341 340 341 342 343 344 344 344 344 344 344 344 345 345 345 345 345 345 346 346 346 347 347 348 349 348
319 319 319 318 320 321 320 320 321 321 323 324 324 324 322 320 321 321 321 321 322 330 339 340 340 344 347 348 348 348 345 342 340 339 339 338 339 339 340 340 341 342 343 343 344 344 344 345 344 345 346 346 346 345 344 345 345 346 347 347 348 349 348
317 320 321 322 322 323 321 321 321 321 323 322 319 321 323 321 322 323 322 319 321 332 341 341 344 344 341 344 346 345 344 341 339 338 337 337 339 338 339 340 339 342 342 343 344 345 345 346 345 346 346 346 346 346 345 344 345 346 346 346 346 348 348
321 322 323 322 321 323 323 322 323 323 324 322 317 319 322 321 322 323 322 319 322 339 350 341 341 345 340 340 343 341 341 338 337 337 336 337 338 337 339 339 339 341 341 343 344 344 345 345 345 346 346 345 346 346 345 345 345 345 344 344 345 346 348
324 322 323 322 320 322 322 321 325 323 323 323 321 325 328 324 321 321 322 319 320 342 365 350 341 343 339 336 338 339 339 337 334 335 335 335 337 337 339 339 340 341 342 343 343 344 344 345 345 346 346 346 346 345 346 345 345 345 344 345 344 344 348
321 320 321 321 320 321 320 322 324 322 325 326 323 331 332 324 322 322 320 318 320 341 366 354 341 339 337 335 336 337 338 336 335 335 334 335 335 336 338 339 339 341 341 342 343 343 344 344 345 346 345 346 346 346 346 345 345 345 345 346 344 343 348
319 319 319 320 321 322 321 323 324 322 325 324 323 327 324 321 327 328 320 319 325 343 356 347 341 342 340 340 339 337 336 334 335 336 334 335 336 336 337 338 339 340 341 342 343 344 344 344 345 345 345 346 346 346 346 346 346 346 346 347 345 345 351
320 321 325 327 326 322 319 322 322 322 324 323 326 325 320 324 329 326 327 329 327 335 345 344 345 346 344 346 344 340 337 333 335 336 335 335 336 336 337 338 339 340 341 342 343 343 344 344 344 345 345 346 346 346 347 347 347 348 348 349 349 351 354
324 326 329 328 326 322 321 322 322 322 323 324 325 322 325 334 327 319 334 347 332 329 342 348 350 350 348 351 348 343 338 335 336 337 335 336 336 336 337 338 338 340 340 341 342 343 343 344 344 345 345 346 346 346 347 348 349 349 349 350 352 353 353
325 326 326 326 325 324 323 323 322 323 323 323 324 324 330 339 326 319 339 354 338 332 338 343 348 352 350 349 344 340 337 336 337 337 336 336 337 336 337 337 338 339 339 341 341 341 342 342 343 344 344 345 346 346 347 348 348 349 350 350 352 352 353
324 325 324 326 325 323 323 323 323 324 324 323 324 325 329 334 330 328 342 352 344 335 335 340 343 342 342 341 337 336 337 336 337 337 337 337 337 337 337 338 338 338 339 340 340 340 341 341 342 343 343 344 344 345 346 347 348 349 349 350 351 352 353
323 324 323 324 323 323 323 322 324 324 323 324 324 325 329 331 332 333 339 343 342 337 338 342 340 336 336 338 339 338 337 337 338 339 338 338 338 337 337 338 338 338 338 339 339 339 340 340 341 341 342 342 343 344 345 346 347 348 348 349 351 352 352
321 323 323 323 322 323 321 321 324 323 322 322 322 325 328 329 331 334 332 331 334 337 339 339 337 337 338 341 344 342 338 336 338 339 338 338 338 338 337 338 338 338 338 339 339 340 340 340 340 340 341 342 342 343 344 345 346 347 348 349 350 351 352
322 324 324 321 321 320 318 320 324 324 324 324 323 325 328 329 330 332 329 328 333 339 341 338 337 339 341 342 342 340 337 336 337 337 338 338 338 338 338 338 338 339 339 339 339 339 338 338 338 338 340 341 341 342 344 344 345 346 348 349 350 351 352
323 325 324 321 320 318 320 326 327 325 324 325 323 323 326 328 330 333 334 336 340 342 339 339 340 341 341 339 336 335 336 336 335 336 337 338 338 338 338 338 339 339 339 339 339 338 337 337 337 338 339 340 341 342 343 344 345 346 347 348 349 350 351
324 326 323 321 320 321 327 334 332 327 324 325 326 326 328 329 330 333 337 338 342 345 339 338 340 339 336 334 332 333 334 334 336 337 338 339 339 339 338 339 339 339 339 339 338 336 336 336 338 339 340 340 341 342 343 344 345 346 347 348 349 349 350
325 325 322 322 325 329 332 334 331 328 327 325 324 325 329 333 331 332 335 335 340 344 340 337 336 333 332 333 332 332 332 333 335 336 337 338 338 338 339 338 339 339 339 339 337 336 338 339 340 341 341 342 343 343 344 345 345 347 347 348 349 349 350
327 324 321 324 328 329 331 334 334 332 331 329 328 326 331 337 335 333 336 337 338 340 338 336 334 332 333 335 336 334 333 333 334 334 336 338 338 339 339 339 339 339 339 340 339 339 340 339 338 339 339 341 342 343 345 346 347 348 348 349 349 350 350
327 325 323 325 325 324 330 335 334 334 333 333 333 331 333 338 336 334 337 338 339 340 338 336 335 334 335 337 338 336 333 333 335 336 337 338 338 339 339 339 340 340 339 339 338 337 336 334 333 334 334 336 338 340 343 345 346 347 348 349 350 350 350
327 325 324 325 323 326 335 336 333 333 333 333 333 328 329 336 336 334 336 336 337 339 338 337 338 337 336 338 339 336 334 335 336 336 338 339 339 340 340 339 339 338 336 336 334 334 334 333 332 332 333 334 335 337 340 342 344 346 347 348 349 350 351
328 327 326 326 326 331 335 333 332 333 333 334 331 324 327 338 338 334 335 336 336 338 338 338 339 339 339 341 339 334 333 336 337 338 339 339 338 338 337 335 335 334 333 333 334 334 334 332 332 331 332 332 333 334 337 340 342 344 346 348 349 350 350
330 329 326 326 329 334 333 331 332 333 332 331 328 326 333 340 337 334 336 335 335 337 338 337 340 340 339 337 335 334 335 337 339 340 340 338 336 334 334 334 334 334 334 334 334 334 335 334 334 333 333 333 333 333 335 337 340 344 347 348 349 350 351
331 331 327 326 329 332 331 331 332 332 330 329 330 333 336 337 335 336 336 333 334 338 341 344 345 343 341 339 338 337 339 339 338 338 336 335 334 333 333 334 334 334 334 335 335 336 337 337 337 335 334 334 334 334 335 338 342 345 347 348 349 349 350
335 334 327 325 329 332 332 332 334 334 333 333 335 337 337 337 338 340 339 339 341 344 346 348 348 349 349 348 347 345 344 343 342 340 337 336 336 336 336 336 336 336 336 336 337 338 338 338 337 335 335 336 336 336 338 342 344 346 347 348 348 348 349
337 337 333 330 333 334 332 332 333 333 333 334 336 338 339 338 339 341 342 344 345 347 348 348 348 350 350 349 349 348 347 347 346 346 344 342 341 341 341 341 341 339 339 339 339 338 337 337 337 336 337 338 337 338 341 343 345 347 348 348 348 347 348
339 340 341 339 336 334 333 332 332 331 332 334 337 339 339 339 338 339 340 341 341 343 344 344 344 344 343 342 341 341 341 341 340 340 339 339 340 340 340 340 340 339 340 339 338 337 338 338 338 338 339 339 339 340 341 342 344 348 349 348 347 347 346
337 336 337 335 334 334 332 331 331 330 330 332 334 335 337 336 335 336 336 335 335 335 334 334 335 334 332 331 330 330 330 330 329 329 329 330 333 335 336 336 337 337 338 338 337 338 338 338 338 339 341 342 341 340 340 340 344 348 349 348 347 346 345
335 337 336 332 333 334 331 330 330 329 328 329 329 330 332 333 333 333 333 333 332 330 327 326 328 327 326 325 326 325 326 326 326 326 325 325 326 328 328 329 331 330 329 329 333 335 336 337 339 341 341 341 339 339 340 343 346 348 347 346 345 344 343
336 339 337 333 332 333 330 331 331 328 326 326 326 327 329 331 332 332 331 331 331 329 328 327 326 326 326 326 326 326 327 327 327 327 327 326 325 325 326 327 328 328 327 329 332 333 334 337 341 341 340 339 338 339 340 343 346 347 345 343 342 342 341
334 335 335 334 335 333 330 330 329 326 325 324 325 327 329 329 329 329 329 328 328 328 330 329 328 328 328 326 326 326 326 326 327 327 327 326 324 324 325 326 326 327 330 333 336 337 339 341 343 342 342 341 341 341 341 341 344 344 343 341 340 339 339
335 334 333 334 337 337 333 329 325 324 324 324 324 326 327 328 329 328 328 328 328 329 331 332 332 332 332 331 330 331 331 331 330 329 327 327 326 326 327 328 329 330 334 337 339 340 342 344 344 343 343 343 343 342 341 342 343 343 342 341 338 336 338
330 329 329 328 330 330 328 325 323 322 322 323 323 324 324 326 327 328 328 328 329 330 332 334 335 336 335 335 334 334 334 334 332 330 329 328 329 330 330 332 335 336 337 339 340 341 342 343 342 341 342 342 341 341 341 342 343 342 341 339 337 336 337
323 323 324 324 324 323 322 322 322 322 322 322 322 322 323 323 324 325 326 326 327 329 330 331 333 334 335 335 335 335 335 335 334 333 332 331 331 332 332 334 336 337 337 338 338 338 339 338 339 339 340 340 341 340 340 342 342 341 339 337 336 335 336
323 322 322 322 322 323 322 321 321 321 321 322 321 321 321 322 322 322 323 323 324 326 326 326 328 329 331 333 333 334 334 334 334 334 334 333 333 333 333 334 335 336 336 335 335 335 335 336 337 338 338 339 339 339 340 341 342 340 338 337 336 335 334
Wind_Speed
7 10 8 8 9 6 4 4 7 3 2 5 4 1 2 1 4 4 4 4 3 2 8 10 8 8 11 10 9 14 18 17 20 23 28 32 35 40 46 49 51 52 51 50 50 49 47 47 46 46 44 42 41 41 41 40 39 38 37 36 35 34 33
10 10 11 11 10 6 4 7 8 4 2 1 2 3 3 3 7 4 4 7 6 4 4 4 3 7 12 11 10 12 11 14 21 26 30 35 39 43 47 50 52 52 52 52 51 50 50 48 46 45 43 41 41 41 40 40 40 39 38 37 37 35 35
9 7 9 10 9 5 0 4 9 6 3 4 2 3 4 5 6 4 5 7 7 6 5 3 5 7 9 9 9 10 10 15 20 24 30 35 39 43 46 49 51 51 52 53 52 51 50 49 48 45 42 42 42 41 40 40 40 40 39 39 38 37 36
5 6 8 10 10 5 2 3 8 3 3 5 4 4 4 5 7 4 5 5 4 6 6 6 10 9 8 9 8 8 11 17 21 24 30 36 40 44 46 48 50 51 52 53 53 52 51 49 48 46 45 44 42 41 40 41 41 41 41 40 39 38 37
3 6 8 11 13 9 5 7 8 4 2 1 2 3 2 4 6 5 6 6 4 4 5 8 12 11 9 11 10 9 10 16 23 29 33 38 42 44 45 46 48 49 50 51 52 52 51 50 48 47 47 46 44 42 41 41 42 42 42 42 40 40 39
7 8 8 10 14 12 10 9 9 9 6 4 5 6 2 2 4 3 5 7 4 4 5 8 10 10 11 12 10 9 11 14 19 25 31 36 40 43 44 45 45 46 48 50 50 50 50 50 50 49 49 47 46 45 42 42 42 42 42 43 42 42 41
9 7 5 5 10 12 13 12 11 11 9 8 9 8 4 3 2 1 1 5 4 4 4 7 9 10 11 10 8 8 15 20 18 17 23 30 36 39 40 42 43 44 46 48 48 49 49 49 49 49 49 48 47 46 43 43 42 42 42 43 43 43 43
5 4 2 2 2 7 12 13 12 12 12 12 10 5 4 5 5 4 2 5 4 3 2 4 7 9 9 11 12 12 16 22 20 16 19 25 31 35 37 40 42 43 44 45 46 47 47 48 48 48 49 49 48 47 46 45 44 43 43 44 44 44 43
5 6 7 5 3 5 8 8 9 12 15 13 5 2 2 5 8 10 7 6 5 3 0 1 5 8 9 13 16 14 16 23 22 18 18 21 26 31 35 38 40 41 43 43 44 45 45 46 47 47 48 49 48 48 47 46 45 44 45 45 45 44 44
9 9 9 8 5 4 4 3 5 10 14 13 6 2 5 7 6 9 9 6 4 2 1 3 5 6 8 13 15 14 20 26 24 20 19 19 23 28 32 36 39 40 41 41 43 44 44 44 45 46 46 47 47 47 47 47 46 46 47 46 46 45 43
11 9 7 6 6 6 7 8 10 11 13 14 9 5 7 5 4 6 8 6 6 6 5 6 7 7 9 12 11 13 23 31 27 22 20 19 22 26 29 34 36 38 39 40 41 42 42 42 42 43 43 44 44 45 46 47 47 48 48 48 48 45 42
14 14 11 10 11 13 14 14 15 14 14 16 14 11 8 6 5 8 6 6 8 9 8 8 9 9 9 8 9 14 24 30 26 21 19 19 22 25 29 33 36 37 39 39 39 39 39 39 39 40 41 41 42 43 44 45 46 47 48 48 47 44 45
16 18 16 11 11 14 15 16 18 16 16 17 16 14 10 8 8 11 7 8 10 10 10 10 10 11 11 13 19 22 23 24 22 20 21 22 24 27 30 33 36 37 38 37 36 35 34 35 36 37 38 39 39 40 42 42 44 45 46 46 45 44 46
15 17 16 11 12 13 13 15 18 17 19 20 19 18 15 14 13 11 8 11 12 11 10 10 12 14 13 15 19 19 19 21 21 21 23 24 26 29 32 34 35 36 36 35 33 31 31 32 32 33 34 34 35 37 38 40 41 42 43 44 43 44 45
11 13 13 11 14 15 15 16 16 15 16 17 17 15 12 12 11 7 5 7 8 8 7 7 9 10 8 9 11 14 19 22 21 22 24 25 28 31 33 34 35 34 33 32 30 28 28 27 26 27 27 28 30 32 34 36 38 39 40 40 41 42 43
6 7 10 12 15 15 17 18 16 13 11 11 12 10 9 10 10 8 6 5 5 7 7 7 9 7 6 8 10 13 19 22 22 24 27 28 30 31 33 34 34 33 32 30 27 25 22 21 21 21 21 23 25 27 30 32 34 35 37 38 39 40 41
3 1 3 6 9 9 11 14 16 15 12 11 10 9 9 11 11 9 8 7 8 9 6 7 10 9 8 11 15 19 23 24 26 28 29 30 31 32 34 34 33 32 30 26 22 20 17 16 15 14 16 18 20 22 25 28 29 31 33 35 36 37 38
3 2 3 2 5 7 7 7 12 17 18 16 15 12 13 14 12 8 5 6 9 8 7 9 11 12 14 20 24 27 27 26 28 31 31 30 30 31 31 31 31 30 27 23 20 17 15 13 12 13 14 15 17 19 21 23 25 28 30 31 33 34 35
2 1 2 3 5 5 3 3 3 11 16 18 18 16 14 13 13 10 7 8 9 8 8 10 10 11 15 18 19 20 21 22 25 27 28 27 28 29 29 28 29 28 25 22 19 18 16 15 14 13 13 14 15 16 17 20 23 25 26 28 29 31 33
2 0 2 3 3 4 4 4 1 2 5 9 12 13 10 9 12 12 11 12 10 6 6 8 8 8 8 9 11 13 15 17 19 22 23 23 23 25 27 27 26 25 24 22 21 19 16 13 10 9 8 9 11 13 14 17 20 21 23 25 27 29 31
1 2 3 3 5 5 4 2 1 2 1 2 5 8 8 9 11 11 11 12 9 5 5 6 7 7 5 4 6 8 9 11 14 16 18 19 19 22 25 25 24 23 22 20 18 14 11 9 8 7 7 7 7 9 11 14 16 18 20 23 25 27 28
1 3 4 4 6 5 1 3 4 5 7 8 5 4 5 7 9 10 11 10 8 7 6 7 10 9 6 5 4 4 8 11 12 14 16 18 20 21 21 20 18 17 16 16 16 16 16 15 12 10 8 6 5 5 7 9 12 14 17 19 21 23 25
2 3 4 4 5 3 3 5 7 9 12 11 6 5 6 7 9 11 11 9 8 8 7 10 12 9 6 5 2 5 8 9 10 12 14 14 15 14 14 16 19 21 22 23 23 21 18 15 11 9 7 5 4 3 3 5 8 11 13 14 16 18 22
2 2 3 4 4 2 6 10 13 15 13 7 5 7 5 5 7 10 11 10 9 9 11 12 10 6 4 4 6 10 13 12 10 12 15 19 22 24 25 27 29 28 26 25 23 20 16 12 10 8 6 5 4 3 2 3 5 6 7 9 12 15 19
3 2 3 4 3 1 6 13 18 16 9 4 6 6 1 1 1 6 9 9 8 9 11 10 5 2 6 12 16 17 18 19 20 22 27 31 33 34 33 31 30 28 25 22 19 17 14 11 9 7 6 5 5 3 2 1 1 2 4 7 10 14 18
3 2 3 5 3 1 8 17 17 10 3 4 3 3 6 7 4 1 6 9 10 10 9 9 9 9 14 20 24 24 24 26 29 30 32 33 34 32 30 28 26 24 22 19 16 15 12 10 8 7 6 6 5 4 2 1 0 1 4 7 10 14 17
2 1 2 4 2 3 12 16 9 4 3 5 7 7 6 7 5 5 10 11 13 15 18 19 19 19 21 24 27 29 29 30 31 31 32 32 32 31 29 26 23 22 21 18 16 14 11 9 8 7 7 7 6 5 3 2 0 2 5 7 10 13 16
2 2 2 1 2 6 12 10 3 5 9 11 13 8 5 8 8 8 13 15 18 24 28 28 27 29 31 32 33 34 34 33 33 32 31 32 31 30 29 27 24 21 20 18 16 14 11 9 8 6 5 5 5 4 3 1 2 3 5 8 10 13 16
2 1 2 2 3 8 10 7 5 11 11 9 10 8 7 10 11 12 14 17 23 30 33 34 34 35 36 35 35 35 35 35 34 32 30 29 28 27 26 25 23 20 19 18 16 14 11 9 7 5 4 4 4 4 3 3 4 5 7 8 10 12 14
2 1 2 5 3 5 9 9 9 11 11 12 11 10 11 14 17 19 20 21 25 31 35 38 38 36 36 36 34 33 32 32 31 29 27 25 23 22 21 20 19 17 16 14 12 11 9 6 4 4 5 5 5 4 4 4 6 6 7 7 8 9 11
4 3 5 7 6 1 6 11 11 12 14 14 13 13 15 18 21 24 25 26 27 30 34 36 35 33 32 32 30 28 27 27 26 24 23 21 19 17 16 14 12 10 8 6 5 6 6 5 5 6 7 7 7 6 6 6 7 7 6 6 6 7 9
1 1 6 10 9 6 7 9 12 13 14 14 13 16 19 21 23 25 26 27 28 29 29 29 29 29 28 27 27 25 24 23 22 20 19 17 16 15 14 11 10 8 6 5 6 7 8 9 9 9 9 9 9 8 7 7 7 6 6 6 6 7 8
2 1 3 8 9 6 8 10 11 11 11 14 14 16 20 23 25 26 26 27 27 26 25 24 25 26 25 24 26 25 24 23 21 19 17 16 15 14 12 10 8 7 6 7 8 9 10 10 10 9 8 7 8 7 6 6 6 7 8 8 8 9 9
4 2 1 2 5 4 6 9 8 8 10 14 14 17 21 23 25 26 26 25 24 23 23 22 23 23 22 21 23 24 23 21 20 19 17 15 14 12 10 8 7 7 7 8 9 10 9 8 7 6 4 4 4 5 5 5 6 7 9 10 11 11 10
2 3 4 6 6 5 9 13 11 10 13 17 19 22 24 25 24 24 24 24 25 24 23 21 21 21 19 18 19 20 19 17 17 16 15 13 12 10 8 7 7 7 8 8 8 7 6 5 4 3 2 2 2 3 5 6 6 8 10 11 12 13 13
4 7 14 19 16 14 18 22 21 19 19 21 23 25 26 27 27 26 26 27 28 27 25 23 21 19 18 16 17 17 17 15 13 12 11 10 9 8 7 6 5 6 6 6 6 5 4 3 3 2 1 1 2 3 5 6 8 10 12 12 14 17 18
9 15 23 27 26 24 25 26 26 24 22 24 26 26 26 27 26 26 27 28 28 26 26 24 22 19 17 17 16 15 14 13 11 9 8 8 6 6 5 5 4 4 5 4 4 4 4 3 2 2 2 1 1 3 5 7 9 11 13 14 16 17 15
Wind_Direction
193 191 175 170 193 189 155 182 205 201 148 166 172 145 83 143 222 199 176 231 241 236 284 274 250 256 255 244 222 218 219 203 196 204 207 207 209 213 219 222 224 227 228 229 231 231 231 230 230 230 230 230 229 229 228 228 229 229 229 231 232 233 233
211 200 187 194 207 175 150 198 179 104 53 199 178 196 160 184 226 211 173 223 228 209 244 250 225 240 244 238 221 218 210 190 199 209 208 209 212 217 222 223 224 226 226 227 228 230 232 231 231 231 231 231 231 231 231 230 230 229 230 231 232 233 233
197 177 194 209 206 182 250 192 158 138 201 193 168 207 187 191 223 218 188 218 231 219 218 236 246 248 250 247 225 206 198 198 206 208 209 213 214 216 220 222 223 223 224 226 226 228 230 231 232 232 232 232 232 232 233 233 233 232 231 232 233 234 234
170 156 194 212 203 184 28 158 163 186 226 186 183 195 179 201 221 217 200 209 218 217 214 222 238 247 253 257 245 212 201 204 207 206 207 211 213 214 217 219 220 222 223 224 226 227 228 230 231 232 231 231 231 232 233 233 233 233 233 234 235 236 236
175 191 198 211 207 188 179 188 182 190 195 154 202 192 159 212 216 205 218 224 200 194 210 215 228 241 240 244 251 242 223 210 212 214 213 212 213 213 215 217 219 221 222 223 225 227 228 229 230 230 229 230 230 231 232 233 234 234 233 234 236 237 238
204 210 196 212 218 198 191 202 193 189 183 162 200 208 178 208 220 196 221 241 218 177 202 213 219 233 236 236 238 247 252 238 226 223 221 218 216 214 215 217 219 221 222 222 223 224 225 226 227 227 228 229 229 229 231 233 234 235 235 235 235 235 237
215 210 178 204 226 207 199 207 203 198 195 190 207 215 178 171 217 124 213 251 231 174 196 213 217 229 242 248 244 248 258 257 251 239 227 223 220 218 217 218 219 220 221 221 221 223 225 226 227 227 227 229 230 229 230 232 233 235 236 237 236 236 237
231 225 177 130 227 210 207 210 202 200 206 209 215 212 169 187 194 162 199 240 212 168 187 224 241 255 268 269 253 243 254 260 260 253 235 225 222 219 217 217 218 219 220 220 220 222 225 225 226 227 227 228 230 230 230 231 233 235 236 238 239 238 238
221 219 212 200 201 205 215 216 201 205 207 204 205 102 151 217 196 184 215 230 194 175 125 221 252 256 262 262 251 243 255 260 257 250 239 228 221 217 215 216 217 218 220 220 220 221 223 224 225 226 227 228 229 231 232 232 233 235 237 238 240 240 240
215 212 214 212 200 191 217 217 198 208 202 190 174 140 203 220 187 187 220 228 189 183 226 232 239 239 247 255 252 246 253 257 255 248 238 226 220 217 214 214 215 217 219 219 218 219 221 222 224 225 227 229 230 232 233 234 235 236 237 238 240 240 237
219 217 213 193 174 186 210 212 202 205 201 192 187 194 211 201 163 197 218 217 211 205 200 221 230 226 236 248 246 241 246 250 252 247 236 224 220 217 213 212 213 214 216 217 217 218 220 222 224 226 228 229 231 233 234 235 236 237 238 238 238 236 231
219 224 218 193 189 203 210 212 210 201 195 195 198 210 205 154 168 217 204 186 214 210 196 211 224 224 233 243 241 238 242 246 247 242 228 218 217 214 210 211 212 213 215 216 216 217 219 223 225 227 229 231 233 235 236 235 236 237 238 239 238 234 232
220 225 221 197 195 213 212 210 211 202 195 196 201 213 203 161 198 229 197 178 205 211 206 213 220 220 219 226 233 236 241 245 243 232 216 209 209 209 209 211 212 213 215 216 216 218 220 223 225 227 229 231 234 236 237 237 237 238 240 240 239 237 236
228 230 225 198 196 219 221 214 211 203 200 199 200 210 204 190 213 228 194 188 206 212 212 214 222 227 226 230 236 237 238 238 233 219 208 205 207 209 211 212 212 213 216 217 217 219 221 223 225 228 230 233 235 236 237 238 238 238 241 242 240 237 236
239 236 230 210 205 218 225 223 217 207 203 203 205 210 202 194 214 227 194 197 219 228 226 230 243 248 242 236 234 229 228 227 221 213 208 207 209 212 213 213 211 211 213 214 216 218 222 225 227 230 232 234 236 236 238 239 239 240 242 241 239 238 238
240 228 232 225 212 216 227 229 223 209 200 202 207 207 190 186 203 217 210 209 231 238 228 230 247 252 238 233 231 229 229 225 218 214 212 212 213 214 213 211 209 209 210 211 214 217 221 223 225 228 231 233 235 236 238 239 240 242 242 240 239 240 240
241 201 246 229 205 212 231 231 224 214 203 202 210 209 200 198 199 205 211 213 226 231 209 206 227 229 225 234 235 234 232 226 222 222 220 218 216 214 213 210 208 209 209 209 210 210 209 211 217 225 230 234 239 239 240 241 242 242 241 240 241 240 240
270 42 67 151 198 219 229 221 217 215 208 206 209 211 209 209 208 208 217 220 224 221 195 198 215 216 219 231 238 239 236 227 224 225 225 222 217 213 212 211 209 208 207 206 204 199 198 201 210 221 226 232 240 241 243 244 243 243 242 242 242 242 242
283 37 115 201 224 239 280 328 230 215 214 211 213 217 215 210 209 212 226 233 226 217 207 211 221 226 229 238 247 252 248 238 229 226 224 220 215 212 210 208 209 209 204 200 195 191 195 202 210 219 225 232 240 243 245 246 244 245 245 244 245 245 244
262 260 223 240 277 304 304 317 353 192 206 199 206 224 230 214 207 209 220 229 225 215 223 230 236 240 242 249 256 258 254 246 238 232 228 224 219 216 212 206 205 204 199 193 191 193 198 202 206 212 217 225 233 237 242 244 244 246 246 245 246 246 245
299 295 271 267 293 288 247 212 71 54 355 200 207 228 223 198 194 201 216 231 229 211 221 224 205 193 198 227 246 245 237 231 229 228 227 225 220 216 213 206 202 202 200 194 190 184 170 154 150 156 168 186 207 221 232 239 243 247 247 247 248 248 249
347 296 296 294 286 277 170 93 38 11 340 320 295 260 222 185 182 195 210 225 223 204 194 181 164 157 184 221 224 206 206 210 210 208 210 213 212 211 210 204 194 187 178 161 147 137 129 128 128 129 138 151 173 204 226 237 244 249 250 251 253 252 251
268 274 297 292 276 286 43 27 356 343 331 320 291 242 221 188 181 194 203 210 210 199 177 164 160 162 194 217 173 154 179 189 197 201 198 195 190 184 178 164 148 140 136 131 126 123 122 124 122 118 119 121 133 172 213 232 244 251 253 257 258 255 253
246 227 280 274 260 336 19 356 334 325 321 311 238 219 206 165 170 189 198 201 200 187 167 160 168 188 203 182 145 148 157 161 168 167 153 142 138 134 132 130 127 126 127 125 122 120 121 123 124 127 129 124 127 140 171 220 244 254 260 263 260 256 255
258 217 261 280 268 26 8 341 328 321 311 248 208 217 234 44 189 196 192 185 173 171 169 161 158 139 117 126 134 139 141 141 139 135 131 128 127 127 126 126 126 126 126 125 124 125 128 132 135 139 142 141 146 155 167 208 255 262 261 261 255 253 251
280 242 260 295 281 82 4 338 329 325 288 208 221 306 347 348 332 174 154 153 152 150 137 112 95 95 109 122 129 131 131 131 129 126 126 125 124 123 123 125 127 128 127 128 131 136 141 145 145 145 146 148 152 154 149 139 133 255 258 257 255 253 250
270 226 253 304 295 41 8 348 340 8 355 306 305 322 356 7 13 88 108 120 132 126 109 100 98 100 103 110 116 119 121 121 119 118 120 120 119 119 118 119 122 126 128 129 132 137 141 144 143 142 141 141 141 135 121 110 234 277 272 261 256 254 250
225 204 202 328 348 360 1 3 353 322 321 312 309 320 39 47 39 77 95 101 112 113 109 105 104 102 101 101 103 105 106 106 105 104 104 105 107 108 107 105 107 113 118 119 120 123 123 121 122 122 121 131 140 138 132 161 241 265 270 261 254 250 246
183 200 182 93 21 322 332 2 349 323 332 344 338 350 59 64 54 70 85 93 104 109 109 108 105 102 100 99 97 96 96 97 98 95 92 93 95 97 99 100 101 106 110 110 111 112 110 110 116 121 132 153 163 168 182 215 240 252 261 262 257 250 244
125 79 122 116 112 304 325 360 3 352 13 29 15 16 52 67 72 80 86 92 98 102 104 104 102 101 100 97 95 93 90 89 90 89 88 88 88 91 96 99 102 107 108 108 111 113 112 118 135 150 164 174 181 192 209 231 243 243 251 263 263 252 242
166 180 154 135 134 121 0 8 9 21 41 42 29 35 55 71 81 85 88 92 94 95 96 97 98 99 99 97 96 94 91 88 87 88 89 88 89 91 92 95 100 106 108 116 137 147 157 178 190 190 188 187 192 203 217 233 238 235 241 251 250 239 232
171 221 142 126 118 103 65 32 8 18 49 59 49 53 68 78 84 86 88 89 88 87 88 91 94 95 95 95 96 94 92 92 92 92 94 95 96 99 101 106 112 118 130 163 183 189 196 201 199 195 193 195 203 211 218 228 233 229 226 224 219 217 219
87 63 148 129 116 98 72 51 19 14 58 78 72 73 80 81 83 86 85 84 83 82 82 84 88 88 88 92 95 94 92 93 95 97 100 101 103 106 109 115 121 126 142 165 179 190 197 198 196 196 196 201 210 216 217 224 226 218 212 207 198 196 201
140 134 212 135 116 114 97 80 49 32 68 84 83 84 85 83 85 87 86 84 85 84 82 82 83 83 83 88 94 95 94 93 95 98 100 101 105 108 111 118 128 139 153 165 177 187 191 190 188 191 196 207 221 229 229 224 218 210 207 202 191 183 182
64 44 70 79 74 80 100 106 103 88 83 85 84 83 83 84 86 89 91 91 89 86 83 81 81 81 81 85 91 92 91 90 95 99 100 100 104 106 109 119 131 142 155 163 169 174 175 173 173 174 178 204 235 249 241 226 216 209 203 196 185 177 175
34 61 88 92 88 88 98 108 112 107 96 92 89 86 85 86 85 85 88 89 89 87 84 82 81 82 81 83 87 88 87 88 93 99 101 104 106 106 108 117 128 139 150 154 154 156 161 165 163 153 148 191 245 255 247 236 222 208 196 188 186 184 180
91 94 98 99 100 103 105 106 106 104 100 96 93 90 88 87 85 84 83 83 85 86 85 83 82 83 83 83 85 86 88 88 90 96 102 104 104 105 109 116 125 135 144 150 154 159 160 157 151 136 117 126 250 251 246 239 226 211 201 197 199 197 190